Location: Domont
(49.0278°N, 2.3264°E)
Time: 11:57:28
(UTC+00:00)

H-2A R/B - Pass Details

Date: 04 June 2022
Orbit: 576 x 653 km, 98.5° (Epoch: 30 June)

Event Time Altitude Azimuth Distance (km) Brightness Sun altitude
Rises 21:24:04 0° 2° (N) 2,807 6.4 -11.5°
Reaches altitude 10° 21:26:41 10° 345° (NNW) 1,908 5.9 -11.7°
Maximum altitude 21:29:37 19° 299° (WNW) 1,409 4.8 -12.0°
Drops below altitude 10° 21:32:34 10° 253° (WSW) 1,918 4.8 -12.3°
Sets 21:35:13 0° 236° (SW) 2,827 5.4 -12.5°
